CDT,Max TemperatureF,Mean TemperatureF,Min TemperatureF,Max Dew PointF,MeanDew PointF,Min DewpointF,Max Humidity, Mean Humidity, Min Humidity, Max Sea Level PressureIn, Mean Sea Level PressureIn, Min Sea Level PressureIn, Max VisibilityMiles, Mean VisibilityMiles, Min VisibilityMiles, Max Wind SpeedMPH, Mean Wind SpeedMPH, Max Gust SpeedMPH,PrecipitationIn, CloudCover, Events, WindDirDegrees
2013-5-1,49,41,33,43,34,30,100,87,74,30.49,30.31,30.05,10,5,1,26,14,31,1.07,8,Rain-Snow-Thunderstorm,6
2013-5-2,53,45,36,31,27,20,76,54,31,30.62,30.53,30.45,10,10,10,29,18,36,0.00,3,,11
2013-5-3,52,41,29,31,27,25,85,62,39,30.45,30.26,30.12,10,10,10,25,15,32,0.00,3,,9
2013-5-4,42,39,36,40,35,30,100,85,70,30.20,30.12,30.05,10,7,2,25,15,31,0.06,8,Rain-Snow,4
2013-5-5,55,48,40,46,42,37,93,85,77,30.21,30.18,30.13,10,10,10,16,10,18,0.01,8,Rain,331
2013-5-6,65,55,44,47,45,41,93,71,48,30.18,30.13,30.06,10,10,10,9,3,12,0.00,5,,322
2013-5-7,73,56,38,54,45,37,100,71,41,30.09,30.04,29.96,10,6,0,17,6,21,0.18,2,Fog-Rain,149
2013-5-8,62,57,52,59,56,54,100,92,84,29.98,29.95,29.92,10,7,2,14,5,17,0.77,7,Rain,141
2013-5-9,63,57,51,57,54,48,100,89,78,30.05,29.95,29.90,10,5,0,23,10,30,T,7,Fog,4
2013-5-10,69,57,45,50,45,38,93,67,40,30.14,30.07,29.99,10,10,8,17,8,22,0.00,4,,341
2013-5-11,59,48,36,46,28,20,77,51,24,30.27,30.22,30.04,10,10,10,32,16,41,0.00,0,,334
2013-5-12,65,47,29,29,24,20,78,49,19,30.31,30.23,30.12,10,10,10,10,4,17,0.00,0,,28
2013-5-13,90,65,40,52,40,29,65,42,19,30.11,29.94,29.76,10,10,10,30,14,36,0.00,0,,174
2013-5-14,106,80,54,57,48,36,83,38,6,29.77,29.66,29.54,10,10,10,32,13,40,0.00,0,,297
2013-5-15,83,69,55,46,43,36,58,37,16,29.96,29.86,29.75,10,10,10,18,7,26,0.00,0,,67
2013-5-16,88,69,50,61,53,43,97,64,17,29.88,29.82,29.75,10,9,0,35,8,45,0.60,2,Fog-Rain-Thunderstorm,103
2013-5-17,88,73,58,64,60,58,96,68,31,29.86,29.81,29.75,10,10,7,20,9,24,0.00,1,,141
2013-5-18,86,73,60,63,61,58,90,65,34,29.89,29.80,29.67,10,10,10,25,10,31,0.04,3,,139
2013-5-19,72,65,58,65,61,54,93,86,78,29.74,29.64,29.49,10,10,7,24,8,31,0.34,5,Rain-Thunderstorm,165
2013-5-20,73,64,54,57,55,50,100,75,49,29.59,29.54,29.51,10,10,7,26,11,33,0.02,7,Rain,240
2013-5-21,62,57,52,57,52,46,94,83,58,29.69,29.62,29.56,10,8,2,21,14,28,0.08,8,Rain,273
2013-5-22,58,55,51,52,49,47,97,84,67,30.00,29.83,29.69,10,9,3,23,13,32,0.07,8,Rain,336
2013-5-23,72,61,50,48,44,36,89,59,25,30.26,30.17,30.01,10,10,10,20,11,25,0.00,2,,48
2013-5-24,74,59,44,48,44,38,77,58,38,30.30,30.19,30.05,10,10,10,28,15,35,0.00,3,,141
2013-5-25,72,64,56,61,55,46,100,78,56,30.06,30.03,29.98,10,10,5,23,14,30,0.09,7,Rain-Thunderstorm,110
2013-5-26,68,60,52,61,56,48,100,89,78,30.03,29.96,29.87,10,8,1,31,14,37,0.09,8,Rain-Thunderstorm,100
2013-5-27,75,66,57,61,57,55,93,77,61,29.95,29.80,29.70,10,9,1,31,9,40,1.02,5,Rain-Thunderstorm,91
2013-5-28,79,67,55,60,58,54,100,74,48,29.73,29.69,29.64,10,9,5,15,6,18,0.00,3,,22
2013-5-29,81,72,63,68,64,60,93,77,60,29.69,29.60,29.44,10,8,1,32,14,41,0.79,5,Rain-Thunderstorm,159
2013-5-30,76,69,62,63,60,55,93,72,50,29.58,29.51,29.45,10,10,10,25,14,29,0.05,5,Rain-Thunderstorm,175
2013-5-31,78,67,56,57,49,44,84,58,32,29.63,29.58,29.55,10,10,10,31,17,40,0.00,2,,241